GFSGL_con_sbcape_282.txt.gz
CAPE
0 0 0 0 0 21 183 246 933 1111 505 646 692 779 639 544 538 484 443 493 374 505 557 689 740 858 804 923 944 1029 769 278 809 1014 506 509 494 774 900 770 528 614 455
0 0 0 0 0 0 0 15 262 644 1179 512 666 777 831 803 699 548 564 651 506 445 452 450 428 468 625 759 898 1047 1065 984 985 1070 997 717 637 902 905 710 547 310 471
0 0 0 0 0 0 0 0 10 150 319 744 933 765 1011 972 814 754 633 640 608 623 595 594 560 572 584 589 679 742 693 879 667 658 820 827 666 641 664 475 501 572 231
0 0 0 0 0 0 0 0 0 0 110 277 461 869 1095 930 940 1043 882 670 652 649 753 715 715 623 583 572 445 549 746 959 839 697 771 921 769 871 387 528 556 217 322
0 0 0 0 0 0 0 0 0 0 0 51 0 35 536 1194 1060 928 914 710 486 546 747 789 812 675 477 634 894 1093 1054 1118 1157 1126 948 799 600 555 615 590 277 294 213
0 0 0 0 0 0 0 0 0 0 0 0 0 0 0 284 828 826 292 745 846 449 678 779 759 471 312 155 57 227 755 926 879 807 798 834 875 851 788 491 442 258 273
0 0 1 4 1 0 0 0 0 0 0 0 0 0 0 0 0 275 236 282 732 600 473 611 382 708 395 507 268 17 0 0 147 829 829 823 872 887 891 539 139 297 389
0 0 0 0 0 7 9 0 0 0 0 0 0 0 0 0 0 0 19 247 452 702 516 33 0 24 66 558 789 760 298 212 14 10 260 823 1021 900 851 777 774 247 41
0 0 0 0 0 0 0 0 0 0 0 0 0 0 0 0 0 0 1 346 358 472 440 90 0 0 0 66 824 836 838 681 283 1 11 61 39 14 222 49 181 133 186
0 0 0 0 2 3 4 3 2 0 0 0 0 0 0 0 0 1 1 550 267 272 182 102 0 16 25 0 7 173 323 474 426 273 7 1 1 0 0 26 549 130 117
1 1 1 0 0 0 3 2 3 8 7 7 6 1 0 0 0 0 0 72 484 270 301 148 24 0 0 0 0 161 233 243 73 52 54 24 35 72 14 3 6 2 56
1 5 8 5 5 6 2 2 0 0 1 0 0 2 2 2 0 0 0 1 154 247 246 269 64 0 0 1 1 0 1 1 0 8 15 22 83 153 184 14 1 19 52
2 2 7 5 5 7 4 2 4 2 4 0 1 0 5 8 15 42 28 1 1 4 240 39 24 71 2 1 1 1 1 2 3 3 3 24 30 39 31 158 56 13 24
6 6 7 7 6 4 2 2 1 5 5 6 5 1 11 19 334 929 2 1 1 0 1 2 0 0 0 0 1 0 3 3 2 2 3 6 20 5 7 30 34 2 1
7 6 7 4 2 2 2 2 3 2 4 6 3 3 22 59 436 607 181 7 1 0 1 2 1 2 1 1 2 4 3 3 4 4 11 9 5 7 1 1 3 3 10
2 8 5 12 14 23 13 2 0 0 0 0 0 0 1 0 0 125 19 10 2 2 1 1 1 1 0 0 5 8 19 9 5 5 6 6 12 9 10 1 1 5 27
0 24 14 5 6 15 10 3 76 1 0 0 1 0 1 0 0 1 1 1 1 1 1 1 4 13 11 17 8 1 1 0 0 0 1 2 2 4 3 5 2 0 1
0 1 16 27 5 4 3 12 6 29 67 6 0 0 1 0 1 1 0 0 1 0 0 39 4 2 1 1 1 0 1 0 0 0 0 0 0 0 2 1 2 3 4
1 2 0 20 9 1 19 6 2 6 13 14 10 4 6 8 1 0 1 0 0 0 0 0 0 0 0 0 0 0 0 0 0 0 0 0 0 0 0 0 0 0 0
0 0 1 1 0 4 6 44 2 1 20 8 3 2 1 1 0 0 0 0 0 0 1 8 0 0 0 0 0 0 0 0 0 0 0 0 0 0 0 0 0 0 0
0 0 0 2 6 6 20 30 60 24 56 45 7 0 0 0 0 0 0 0 0 0 0 2 1 0 0 0 0 0 0 0 0 0 0 0 0 0 0 0 0 0 0
0 0 0 0 0 0 3 12 23 25 51 2 0 0 0 0 0 0 0 0 0 0 0 0 0 0 0 0 0 4 0 0 0 0 0 0 0 0 0 0 0 0 0
0 0 0 0 0 0 0 0 0 0 3 2 3 0 0 0 0 0 0 0 0 0 0 0 0 0 0 0 0 0 0 0 0 0 0 0 0 0 0 0 0 0 0
0 0 0 0 0 0 0 0 0 0 0 3 1 0 0 0 0 0 0 0 0 0 0 0 0 0 0 0 0 0 0 0 0 0 0 0 0 0 0 0 0 0 0
0 0 0 0 0 0 0 0 0 0 0 0 0 0 0 0 0 0 0 0 0 0 0 0 0 0 0 0 0 0 0 0 0 0 0 0 0 0 0 0 0 1 1
0 0 0 0 0 0 0 0 0 0 0 0 0 0 0 0 0 0 0 0 0 0 0 0 0 0 0 0 0 0 0 0 0 0 0 0 0 0 0 0 0 0 0

GFSGL_con_sbcape_285.txt.gz
CAPE
0 8 2 0 0 0 0 0 0 6 48 186 1192 1507 1384 1522 1629 1674 1811 1736 1712 1823 1934 1842 1953 2624 1685 1419 1407 1296 1084 1028 637 346 169 766 1709 1848 1533 1856 1851 1791 1342
0 0 0 0 0 0 0 0 0 0 0 2 61 322 1330 1456 1570 1812 1713 1623 1644 1705 1776 1904 1851 1719 2107 2564 1736 2425 1470 1558 1069 1802 1237 723 1728 1827 1751 2180 1825 1248 1204
0 0 0 0 0 0 0 0 0 0 0 0 0 0 0 322 1395 1406 1722 1885 1737 1797 1796 2021 1905 2143 2180 1948 2038 1936 1699 1592 1744 1565 1304 1062 755 897 1380 1721 1563 1638 1596
0 0 0 0 0 0 0 0 0 0 0 0 0 0 0 0 18 1040 1558 1267 1410 1539 1727 1945 2023 2213 2585 2780 2418 2634 2641 2122 1970 1564 1243 1165 1124 1157 1082 911 1005 834 1048
0 0 0 0 0 0 3 7 7 2 0 1 0 0 0 0 0 19 362 1293 1433 1350 1583 1673 1711 1719 1294 1459 2274 2654 2504 2169 1829 1236 1015 995 1295 1082 1350 1083 1066 923 1221
0 0 0 0 0 0 1 6 13 22 29 23 14 0 0 0 0 0 0 0 352 1549 1536 1441 1089 883 764 171 91 49 246 2106 2187 1163 942 1072 2330 1709 996 884 916 798 713
0 0 0 1 0 1 2 4 9 22 25 12 10 9 2 0 0 0 0 0 0 446 1485 1360 1450 1271 99 12 0 0 0 0 42 1677 2370 2207 2133 2247 2238 1840 1830 1322 1150
1 2 1 4 5 6 9 7 8 8 15 13 6 8 4 0 0 0 0 0 0 86 501 1243 1159 1219 125 61 0 0 0 156 510 291 890 1577 2023 2310 2629 2428 2452 2170 1728
12 16 17 11 13 19 22 24 8 19 15 24 22 33 25 9 0 0 0 0 0 1 313 1317 1219 969 185 0 0 0 0 171 677 423 198 245 205 128 221 1420 1232 813 899
22 26 35 36 45 72 66 50 49 37 42 22 28 47 33 28 0 0 0 0 0 0 48 847 596 447 251 0 0 0 1 136 798 795 907 59 22 42 0 121 634 1076 936
20 21 19 39 20 26 38 15 10 31 45 22 10 22 50 52 23 0 0 0 0 0 5 543 919 88 9 0 0 171 154 276 458 882 743 1257 827 546 307 192 186 362 518
7 12 14 5 5 6 7 7 11 14 15 22 8 4 4 29 8 0 0 0 0 7 11 371 535 522 11 0 1 9 0 0 364 119 133 248 134 62 155 752 320 283 885
0 0 0 3 6 12 11 10 5 6 7 6 5 2 3 18 7 0 0 0 0 4 1 67 563 376 0 0 1 1 1 4 3 6 12 69 102 197 497 388 418 571 674
0 0 0 20 15 6 13 15 13 3 4 7 6 3 4 1 5 3 1 179 6 0 0 0 41 0 0 15 6 0 4 3 4 3 3 6 27 156 250 295 152 141 80
29 2 7 45 20 14 14 10 5 4 2 2 6 4 7 3 0 3 4 93 276 56 0 2 1 1 1 2 2 3 6 9 6 11 31 88 107 170 178 227 152 121 57
83 8 19 34 30 23 24 14 3 0 0 0 0 0 5 0 0 0 0 0 1 1 0 2 1 1 1 1 2 18 28 50 65 73 205 59 32 21 26 90 88 127 75
89 185 99 56 75 28 7 20 17 15 0 0 1 0 0 0 0 0 1 1 1 0 7 52 34 20 1 2 3 28 29 5 3 4 11 12 4 2 4 6 6 7 4
84 32 85 174 185 48 24 1 25 7 19 8 2 0 0 1 1 1 0 0 5 7 82 62 69 57 73 71 59 4 3 4 9 17 11 5 2 4 8 8 3 3 6
82 77 73 114 103 41 39 35 32 28 14 11 5 0 0 0 0 1 1 23 116 32 2 11 5 4 4 38 11 4 11 2 0 0 0 1 6 2 2 2 1 0 0
78 42 23 54 78 61 144 100 51 70 56 27 9 3 1 13 10 8 4 4 14 23 19 21 22 16 59 50 43 82 109 82 33 0 0 0 0 0 0 0 0 0 0
38 48 48 52 70 117 89 109 124 72 68 99 73 21 5 3 2 2 1 5 3 4 22 31 4 20 23 7 0 0 0 0 0 0 0 0 0 0 0 0 0 0 0
24 43 52 37 25 29 44 96 76 80 56 57 122 94 19 29 13 1 0 0 0 0 0 0 0 0 1 3 0 0 0 0 0 3 2 2 3 0 0 0 0 0 19
12 22 56 33 14 3 23 13 7 3 18 37 36 23 65 55 31 14 0 0 0 0 0 0 0 0 0 0 0 0 0 0 0 26 25 18 14 1 0 0 0 0 0
6 10 31 28 12 2 13 26 34 2 5 13 15 9 15 17 16 10 1 0 0 0 0 0 0 0 0 0 0 0 0 0 0 0 1 17 41 38 3 0 0 0 0
5 8 14 16 13 0 2 10 10 15 27 40 36 45 38 19 8 0 0 0 0 0 0 0 0 0 0 0 0 0 0 0 0 0 0 0 0 0 0 0 19 46 17
18 2 3 11 7 0 0 0 0 0 0 0 5 6 3 4 12 12 0 0 0 0 0 0 0 0 0 0 0 0 0 0 0 0 0 0 0 0 0 0 0 0 0

GFSGL_con_sbcape_288.txt.gz
CAPE
0 0 5 2 0 1 1 0 0 0 0 4 15 22 38 194 1340 2101 2418 2499 2844 2869 2310 2484 2982 3247 2046 1330 1204 1435 1113 926 548 260 145 282 1306 858 751 1166 912 1173 1387
0 0 0 0 0 0 0 0 0 0 0 0 0 0 7 1 54 874 1641 2022 2391 2598 2589 2835 2777 2435 3164 3329 2439 2754 1724 2034 1208 2490 1422 1006 2153 2382 1701 2076 1109 837 695
0 0 0 0 0 0 0 0 0 0 0 0 0 3 8 0 0 0 0 126 1133 2158 2299 2738 2437 2689 3108 2466 2814 2315 1937 1791 2017 1661 1502 1209 1096 947 1427 1854 1572 2072 1188
0 0 0 0 0 0 0 0 0 2 4 3 0 0 0 0 0 0 0 0 15 427 1603 1985 2019 2576 2903 3201 3160 3266 2842 1916 1606 1391 1265 1133 1080 1260 997 746 507 571 622
0 0 0 0 0 0 0 0 1 2 2 7 12 10 7 1 0 0 0 0 0 0 50 1132 1951 2112 1519 1837 2603 3250 3060 2059 1237 964 984 863 828 678 842 659 631 636 1076
0 0 0 0 0 1 3 4 7 6 7 9 10 14 13 4 0 0 0 0 0 0 0 0 0 706 1214 778 582 712 1323 3192 2632 1007 671 825 2074 1717 1029 902 788 669 686
0 0 0 0 2 3 8 10 12 11 15 11 8 11 13 15 4 1 0 1 1 0 0 0 0 0 1260 2139 800 203 133 74 135 2431 2527 1825 2158 2486 2730 2799 2449 1748 1238
0 0 1 3 5 11 19 19 29 24 30 28 24 36 41 25 10 5 9 36 12 4 0 0 0 90 559 2047 2384 2110 1714 1300 380 57 66 717 1810 2133 2839 2734 2717 2632 1696
0 0 3 17 30 22 23 33 29 29 36 46 56 92 83 64 22 17 30 45 30 11 1 0 0 0 7 190 1424 1688 1761 900 86 0 19 393 343 262 366 2075 1142 1357 1185
5 13 16 8 23 40 80 65 28 29 37 32 50 77 65 82 23 2 16 32 37 3 0 0 0 0 0 39 648 949 834 914 567 205 150 85 48 113 0 380 1128 1541 1082
12 16 44 22 20 34 101 118 44 25 22 13 13 20 53 65 69 1 0 42 31 2 0 0 0 0 0 0 0 1055 509 581 714 309 284 476 379 1111 1489 877 876 1021 1190
13 31 56 32 25 50 86 27 22 22 22 13 17 11 8 13 7 4 0 1 20 38 9 0 0 0 0 0 0 0 10 0 133 252 516 349 419 614 1385 1308 1410 1470 798
98 127 158 144 114 78 67 35 17 21 23 17 13 12 7 5 11 1 0 0 0 31 33 0 0 0 0 0 1 0 0 0 9 167 451 402 216 310 948 842 1108 1179 1709
111 152 131 162 131 79 26 19 10 21 17 19 17 8 5 4 5 10 15 29 2 0 0 5 0 0 0 0 44 1 0 101 95 136 199 347 379 446 262 259 903 1237 1019
87 72 110 147 154 143 32 12 2 5 0 1 3 8 14 3 3 3 3 32 45 1 1 4 92 10 12 53 67 84 1 5 127 412 301 96 144 239 563 981 853 1019 713
119 57 82 117 128 218 190 23 0 1 0 0 0 0 0 1 0 0 0 0 0 0 1 16 13 273 273 262 265 135 22 1 2 18 56 112 171 354 441 405 362 436 298
207 197 136 106 153 179 186 115 70 10 2 0 0 0 0 0 0 0 0 0 0 0 3 12 10 204 391 332 176 115 36 20 1 12 0 117 160 37 5 9 4 8 6
256 111 176 157 161 399 179 123 92 86 97 8 0 0 0 0 0 0 0 0 5 5 9 8 23 485 393 221 70 1 1 4 6 3 12 24 27 17 12 8 7 6 6
168 142 153 142 130 97 150 151 180 204 76 57 8 0 1 0 0 0 0 8 7 106 123 272 357 314 81 9 3 3 3 0 0 21 30 24 41 41 36 27 10 3 5
95 81 53 107 102 99 127 157 160 277 209 81 83 71 12 7 7 8 6 9 5 12 34 78 26 9 24 20 61 33 12 18 39 34 40 15 2 8 7 22 25 28 15
84 76 67 82 65 55 73 84 157 176 187 243 175 85 8 28 0 13 15 5 2 7 5 3 3 6 17 1 1 0 0 12 0 0 31 23 0 0 0 0 0 0 0
58 48 46 49 55 46 42 63 67 77 80 71 170 134 33 86 55 22 0 2 3 0 3 5 2 1 0 5 32 9 10 9 31 0 0 0 1 3 13 8 8 26 6
77 75 47 63 55 35 37 28 29 43 45 45 49 47 76 107 95 52 47 19 1 0 0 0 0 0 0 0 0 0 0 0 0 1 13 88 75 66 60 26 17 32 43
88 61 66 62 63 53 46 9 20 3 19 25 28 36 51 28 25 14 4 3 5 0 0 0 0 0 0 0 0 0 0 0 0 0 0 7 34 41 60 47 16 10 12
67 67 75 58 52 52 34 15 6 3 4 10 19 21 26 24 27 32 26 1 0 2 8 2 0 0 0 0 0 0 0 0 0 0 0 0 0 0 0 5 10 71 81
27 46 41 30 41 27 11 2 2 0 0 3 5 5 8 12 14 21 29 30 35 30 7 0 0 0 0 0 0 0 0 0 0 0 0 0 0 0 0 0 0 1 6

GFSGL_con_sbcape_291.txt.gz
CAPE
0 0 0 0 35 73 24 112 71 158 306 327 359 367 258 272 395 654 1537 1445 2199 2871 3477 3232 2935 3634 1991 2142 2219 1986 1677 1535 1951 1029 653 769 2342 2082 1024 975 606 1352 895
0 0 0 0 0 0 26 3 0 18 26 51 133 246 361 396 421 405 242 194 547 1009 2044 2864 2809 3251 3283 3192 2430 2881 2789 2955 2630 2795 1983 1449 2320 2214 2507 3049 1494 816 625
0 0 0 0 0 0 0 0 0 0 0 0 5 86 178 300 321 316 400 251 162 131 394 1387 2805 3199 3439 3171 3027 2929 2109 2661 2365 2051 1929 1829 1582 1675 2119 3008 2832 2386 1107
0 0 0 0 0 0 0 0 0 0 0 0 0 2 8 78 115 250 321 346 231 45 41 261 1026 2098 2821 3386 3161 3133 2993 2746 2647 2604 2464 2070 1775 1950 1680 1557 1347 1422 1153
0 0 0 0 0 0 7 2 2 3 4 5 11 2 5 2 1 17 141 355 297 204 116 16 3 8 197 858 2565 2730 2840 2609 2663 2374 2133 1643 1719 1590 1541 1460 1228 897 1374
0 0 0 0 0 0 0 1 6 10 19 27 14 15 23 1 0 0 0 0 24 44 19 10 6 0 0 0 0 352 1467 2297 2181 2213 2144 2082 1877 1842 1476 1216 1326 1172 900
0 0 0 1 1 3 5 8 9 21 43 46 59 69 60 54 11 6 13 13 17 45 70 53 25 0 0 0 0 0 108 155 317 1836 2069 2518 2643 2449 2469 2757 2221 1957 1630
0 0 0 0 0 3 4 15 30 24 30 48 46 70 79 64 21 15 19 64 61 46 40 59 80 60 31 2 0 55 636 2273 1900 1220 1349 1693 1933 1555 1873 1869 2437 2963 2566
0 1 5 10 13 9 5 10 21 15 45 63 52 71 80 68 25 12 24 64 62 62 62 74 69 55 27 1 0 0 0 4 553 688 1437 919 420 110 40 98 218 769 768
6 8 14 15 18 23 21 52 45 42 90 46 15 24 20 25 17 3 6 56 52 37 44 44 27 32 12 2 0 3 9 18 267 971 364 3 0 10 0 410 761 624 502
13 19 17 25 72 98 64 83 99 96 85 2 12 22 19 14 9 2 0 24 20 26 28 25 26 2 0 0 0 0 0 66 700 1067 1243 889 432 855 1116 772 1088 1145 951
41 38 61 129 145 123 261 219 186 152 129 27 13 14 12 15 6 4 0 0 1 13 16 28 34 16 0 0 0 0 0 0 19 700 860 569 486 956 741 1190 1698 1725 1475
54 139 160 214 335 354 346 149 85 80 127 36 14 13 15 33 28 3 0 0 0 3 21 25 7 0 0 0 0 0 0 9 200 438 278 380 569 980 556 1499 1610 1955 1914
99 223 157 239 218 172 147 98 94 71 45 11 5 8 9 18 22 23 23 10 0 2 7 3 1 2 0 0 0 0 0 288 682 240 145 439 789 1140 992 1093 1004 1395 1410
132 45 68 77 107 163 184 93 102 164 36 37 0 0 3 9 9 1 1 4 11 8 0 2 11 6 45 23 4 1 2 497 209 307 413 342 661 689 708 799 1190 1353 749
148 78 81 70 61 88 69 71 11 0 0 18 0 0 0 0 0 0 0 0 0 0 0 14 8 13 13 42 234 421 544 371 239 513 786 1088 736 1128 965 1227 1322 1124 905
370 193 108 64 68 46 47 109 114 123 17 16 19 0 0 0 0 0 0 0 0 0 0 5 6 11 14 14 838 669 677 645 833 687 591 392 292 304 2 108 389 112 14
275 94 157 53 60 58 80 142 95 165 213 132 78 22 2 0 0 0 1 0 3 2 13 9 9 12 16 26 642 891 740 615 721 290 188 139 45 8 2 0 9 4 8
132 77 63 53 115 54 78 92 107 151 224 226 274 78 0 0 0 0 0 10 12 8 8 14 11 20 7 74 677 418 375 252 131 311 34 37 1 0 11 16 9 5 2
104 54 43 56 48 56 102 74 72 141 220 221 238 139 30 0 0 2 12 10 16 14 7 11 9 4 29 12 4 3 3 2 3 0 0 0 4 0 18 1 10 15 12
86 59 48 51 46 56 83 127 126 82 247 100 72 102 0 56 40 6 9 16 11 4 4 5 9 5 9 7 12 4 6 1 6 3 0 0 0 2 2 29 43 22 12
96 101 74 55 97 87 84 117 125 75 76 50 35 66 0 45 44 69 24 5 4 4 7 5 4 2 3 2 2 6 1 5 64 8 11 44 37 1 0 33 66 20 7
90 85 79 91 71 55 93 58 67 65 42 46 26 34 69 22 34 44 50 47 25 44 11 0 1 0 0 0 0 0 0 4 0 38 38 25 0 12 52 44 47 57 60
78 73 66 61 80 48 55 55 53 5 14 23 21 28 34 32 15 8 2 7 20 13 15 0 0 0 0 0 0 0 0 0 0 0 0 0 0 5 0 0 57 42 31
46 49 70 76 103 78 67 43 2 6 9 16 12 9 17 12 13 21 11 3 0 0 0 0 0 0 0 0 0 0 0 0 0 0 0 0 0 0 0 0 0 57 32
12 62 55 43 64 71 55 5 5 5 3 8 17 18 22 15 6 12 6 9 19 24 15 1 0 0 0 0 0 0 0 0 0 0 0 0 0 0 0 0 0 0 8

GFSGL_con_sbcape_297.txt.gz
CAPE
0 0 0 0 0 0 0 0 0 0 0 0 0 0 0 0 0 0 0 0 0 0 0 0 0 152 460 1186 1841 1660 1266 1124 1273 1384 1003 882 1120 1278 1361 424 225 661 613
0 0 0 0 0 0 0 0 0 0 0 0 0 0 0 0 0 0 0 0 0 0 0 0 0 0 0 0 7 937 1835 1576 1293 1159 1120 1156 992 856 933 1357 1172 604 264
0 0 0 0 0 0 0 0 0 0 0 0 0 0 0 0 0 0 0 0 0 0 0 0 0 0 0 0 0 0 0 707 1633 1486 1099 1303 1359 1131 1055 786 834 932 856
0 0 0 0 0 0 0 0 0 0 0 0 0 0 0 0 0 0 0 0 0 0 0 0 0 0 0 0 0 0 0 155 471 947 1291 1372 1218 1150 919 980 871 890 852
0 0 0 0 0 0 0 0 0 0 0 0 0 0 0 0 0 0 0 0 1 1 0 0 0 0 0 0 0 0 0 0 0 0 0 0 366 1129 1149 949 727 750 560
0 0 0 0 0 0 0 0 0 0 0 0 0 0 0 0 0 0 0 0 0 1 2 1 0 7 2 0 0 0 0 0 0 0 0 0 0 0 525 988 962 912 929
0 0 0 0 0 0 0 0 0 0 0 0 0 0 0 0 0 0 0 0 0 0 1 0 3 12 15 5 2 0 0 0 0 0 0 0 0 0 0 220 575 916 829
0 0 0 0 0 0 0 0 0 0 0 0 0 0 0 0 0 0 0 0 0 0 0 5 12 9 9 13 8 2 0 0 0 8 2 0 0 0 0 0 0 302 567
0 0 1 0 0 0 0 0 0 0 0 0 0 0 0 0 0 0 0 0 0 0 0 7 29 23 18 18 25 21 9 0 0 0 0 0 0 0 0 0 0 39 140
0 8 4 0 0 0 0 0 0 8 0 1 0 0 0 0 0 0 0 0 0 0 0 1 28 39 24 7 17 15 14 2 6 0 13 11 1 0 0 0 0 0 4
8 2 9 2 2 2 23 30 34 39 35 24 12 0 0 0 0 0 0 0 0 0 1 3 6 20 15 4 0 3 6 5 7 1 0 0 0 38 11 0 0 0 0
44 54 33 20 43 65 39 39 60 70 54 43 29 1 0 0 0 0 0 0 1 6 5 5 3 3 3 0 0 0 0 0 0 0 3 5 3 8 7 11 0 118 425
109 28 22 39 41 54 70 79 102 93 57 23 0 0 0 0 0 0 0 0 1 5 8 10 11 1 0 1 2 0 0 0 1 1 0 0 0 0 0 2 151 84 52
106 15 30 43 51 38 18 64 105 76 36 0 0 0 0 0 0 0 0 0 0 0 3 0 8 18 9 6 5 1 0 0 1 1 0 0 5 17 0 0 52 96 472
169 62 52 24 23 18 39 45 26 12 18 3 0 0 0 0 0 0 0 0 0 0 0 0 0 5 9 8 3 1 0 1 0 1 2 3 15 42 59 40 69 180 303
274 146 33 26 38 49 32 3 0 6 7 0 0 0 0 0 0 0 0 0 0 0 0 1 1 0 6 12 11 11 9 31 24 33 0 0 28 7 11 73 144 195 160
251 148 121 68 116 49 24 31 6 0 15 3 0 0 0 0 0 0 0 0 0 0 1 1 1 4 6 10 14 11 12 1 10 26 30 0 0 0 0 141 249 396 246
373 401 203 155 54 26 17 1 3 11 0 0 0 0 0 0 0 0 0 0 0 0 1 1 2 2 4 7 3 2 1 3 4 6 33 85 147 177 278 367 451 398 311
248 146 129 68 25 4 7 0 1 11 4 1 0 0 0 0 0 0 0 0 0 2 5 1 0 1 1 5 9 9 4 3 8 46 50 128 307 345 436 572 539 336 51
244 179 105 54 11 29 13 9 0 0 1 2 0 3 0 0 0 0 0 0 0 0 0 2 1 0 1 2 4 5 5 9 6 6 2 1 1 16 249 183 32 1 1
76 9 9 19 22 4 0 0 0 0 0 8 0 0 0 0 0 0 0 0 0 0 0 0 0 0 0 0 1 2 0 4 8 7 7 7 2 2 1 1 1 1 7
17 22 3 4 9 12 0 1 8 1 4 0 0 0 0 0 0 0 0 0 0 0 0 0 0 0 0 0 0 0 1 1 3 3 3 4 4 5 3 5 2 1 5
0 0 1 0 0 8 16 0 4 7 3 0 0 0 0 0 0 0 0 0 0 0 0 0 0 0 0 0 0 0 0 0 0 2 0 0 0 2 0 2 22 17 8
1 0 0 0 2 1 0 8 15 13 2 4 3 0 0 0 0 0 0 0 0 0 0 0 0 0 0 0 0 0 0 0 0 0 0 0 0 0 0 1 31 18 4
0 0 0 0 0 0 0 8 34 3 0 1 0 2 0 0 0 0 0 0 0 0 0 0 0 0 0 0 0 0 0 0 0 0 0 0 0 0 0 0 4 32 40
0 0 0 0 1 19 34 12 36 9 10 8 14 5 18 0 0 0 0 0 0 0 0 0 0 0 0 0 0 0 0 0 0 0 0 0 0 0 0 0 0 0 0

GFSGL_con_sbcape_303.txt.gz
CAPE
1 0 0 0 0 0 0 0 0 0 0 0 0 0 0 0 0 0 0 0 0 0 0 0 0 0 0 0 0 0 0 0 12 0 0 0 0 31 96 407 436 440 416
4 0 0 0 0 0 0 0 0 0 0 0 0 0 0 0 0 0 0 0 0 0 0 0 0 0 0 0 0 0 0 0 0 0 0 0 0 0 0 8 486 373 643
0 0 0 0 0 0 0 0 0 0 0 0 0 0 0 0 0 0 0 0 0 0 0 0 0 0 0 0 0 0 0 0 0 0 0 0 0 0 0 56 397 598 549
0 0 0 0 0 0 0 0 0 0 0 0 0 0 0 0 0 0 0 0 0 0 0 0 0 0 0 0 0 0 1 0 4 6 4 1 0 0 0 0 0 35 344
0 0 0 0 0 0 0 0 0 0 0 0 0 0 0 0 0 0 0 0 0 0 0 0 0 0 0 0 0 2 0 0 3 10 8 4 1 0 0 0 0 0 0
0 0 0 0 0 0 0 0 0 0 0 0 0 0 0 0 0 0 0 0 0 0 0 0 0 0 0 0 0 10 12 5 11 28 12 1 0 4 11 9 0 0 0
0 0 0 0 0 0 0 0 0 0 0 0 0 0 0 0 0 0 0 0 0 0 0 0 0 0 0 0 2 32 28 33 32 16 36 26 19 9 2 2 1 1 0
0 0 0 0 0 0 0 0 0 0 0 0 0 0 0 0 0 0 0 0 0 0 0 0 0 0 0 0 3 5 6 6 0 3 10 36 23 32 25 10 4 3 5
0 0 0 0 0 0 0 0 0 0 0 0 0 0 0 0 0 0 0 0 0 0 0 0 0 0 0 7 10 7 6 7 11 19 23 47 58 46 40 19 5 5 1
0 0 0 0 0 0 0 0 0 0 0 0 0 0 0 0 0 0 0 0 0 0 0 0 0 0 0 0 2 3 5 2 7 7 3 13 40 36 43 40 30 20 5
0 0 0 0 0 0 0 0 0 0 0 0 0 0 0 0 0 0 0 0 0 0 0 0 0 0 0 0 0 1 2 3 6 19 11 10 2 45 19 13 20 34 48
0 0 0 0 0 8 0 0 0 0 0 0 4 0 0 0 0 0 0 0 0 0 0 0 0 0 0 0 0 0 0 4 3 7 8 9 11 14 22 29 18 5 4
0 0 0 0 0 0 0 0 0 0 0 3 10 2 0 0 0 0 0 0 0 0 0 0 0 0 0 0 0 0 0 0 1 2 1 1 3 12 10 12 14 12 10
0 0 0 0 0 0 0 0 0 0 0 4 2 0 0 0 0 0 0 0 0 0 0 0 0 0 1 5 1 1 3 1 0 0 0 0 0 1 6 5 3 2 1
0 0 0 0 0 0 0 0 0 0 12 9 2 2 0 0 0 0 0 0 0 0 0 0 0 0 2 9 5 4 4 7 14 5 1 3 7 8 5 0 3 0 1
0 0 0 0 0 0 0 0 8 1 9 0 0 0 0 0 0 0 0 0 0 0 0 0 0 0 0 2 3 8 6 6 4 8 11 17 13 11 17 7 3 1 1
0 0 0 0 0 0 3 8 2 32 3 0 0 0 0 0 0 0 0 0 0 0 0 0 0 0 0 0 0 0 7 9 5 4 7 14 11 7 4 5 8 18 1
0 0 0 0 2 8 6 4 20 28 0 0 0 0 0 0 0 0 0 0 0 0 0 0 0 0 0 0 0 0 0 4 4 2 4 4 8 17 18 4 6 7 3
0 0 0 0 0 0 0 0 0 3 0 0 0 0 0 0 0 0 0 0 0 0 0 0 0 0 0 0 0 0 0 0 0 1 0 2 1 3 4 27 11 0 0
0 0 0 0 0 0 0 8 4 1 0 0 0 0 0 0 0 0 0 0 0 0 0 0 0 0 0 0 0 0 0 0 0 0 0 0 1 3 6 8 6 14 1
0 0 0 0 0 0 0 0 0 0 0 0 0 0 0 0 0 0 0 0 0 0 0 0 0 0 0 0 0 0 0 0 0 0 0 0 0 1 2 5 6 10 19
0 0 0 0 0 0 0 0 0 0 0 0 0 0 0 0 0 0 0 0 0 0 0 0 0 0 0 0 0 0 0 0 0 0 0 0 0 0 0 3 4 8 6
0 0 0 0 0 0 0 0 0 0 0 0 0 0 0 0 0 0 0 0 0 0 0 0 0 0 0 0 0 0 0 0 0 0 0 0 0 0 0 1 2 10 9
0 0 0 0 0 0 0 0 0 0 0 0 0 0 0 0 0 0 0 0 0 0 0 0 0 0 0 0 0 0 0 0 0 0 0 0 0 0 0 0 0 1 2
0 0 0 0 0 0 0 0 0 0 0 0 0 0 0 0 0 0 0 0 0 0 0 0 0 0 0 0 0 0 0 0 0 0 0 0 0 0 0 0 0 0 0
0 0 0 0 0 0 0 0 0 0 0 0 0 0 0 0 0 0 0 0 0 0 0 0 0 0 0 0 0 0 0 0 0 0 0 0 0 0 0 0 0 0 0